| time (UTC) | temp F | wind direction | speed MPH | gust MPH | rain 1hr in | rain 24hr in | rain mn in | humidity % | barometer mb |
| 20260905044027 | 78 | 140 | 0.0 | 2.0 | 0.00 | 0.00 | 0.00 | 93 | 1015.1 |
| 20260905043526 | 78 | 146 | 1.0 | 2.0 | 0.00 | 0.00 | 0.00 | 93 | 1015.1 |
| 20260905043022 | 78 | 318 | 0.0 | 1.0 | 0.00 | 0.00 | 0.00 | 93 | 1015.3 |
| 20260905042520 | 78 | 135 | 0.0 | 1.0 | 0.00 | 0.00 | 0.00 | 93 | 1015.4 |
| 20260905042016 | 78 | 168 | 0.0 | 0.0 | 0.00 | 0.00 | 0.00 | 93 | 1015.5 |
| 20260905041511 | 78 | 113 | 0.0 | 0.0 | 0.00 | 0.00 | 0.00 | 92 | 1015.4 |
| 20260905041007 | 78 | 308 | 0.0 | 1.0 | 0.00 | 0.00 | 0.00 | 92 | 1015.4 |
| 20260905040506 | 78 | 351 | 0.0 | 1.0 | 0.00 | 0.00 | 0.00 | 92 | 1015.6 |
| 20260905040005 | 78 | 331 | 0.0 | 1.0 | 0.00 | 0.03 | 0.03 | 92 | 1015.5 |
| 20260905035500 | 78 | 28 | 0.0 | 0.0 | 0.00 | 0.03 | 0.03 | 92 | 1015.6 |
| 20260905034957 | 78 | 328 | 0.0 | 2.0 | 0.00 | 0.03 | 0.03 | 91 | 1015.5 |
| 20260905034457 | 78 | 120 | 0.0 | 0.0 | 0.00 | 0.03 | 0.03 | 91 | 1015.4 |
| 20260905033957 | 78 | 309 | 1.0 | 2.0 | 0.00 | 0.03 | 0.03 | 91 | 1015.7 |
| 20260905033457 | 78 | 317 | 0.0 | 1.0 | 0.00 | 0.03 | 0.03 | 91 | 1015.6 |
| 20260905032952 | 78 | 275 | 0.0 | 2.0 | 0.00 | 0.03 | 0.03 | 91 | 1015.6 |
| 20260905032447 | 78 | 174 | 0.0 | 2.0 | 0.00 | 0.03 | 0.03 | 91 | 1015.4 |
| 20260905031942 | 78 | 142 | 2.0 | 3.0 | 0.00 | 0.03 | 0.03 | 91 | 1015.5 |
| 20260905031438 | 78 | 164 | 0.0 | 1.0 | 0.00 | 0.03 | 0.03 | 91 | 1015.4 |
| 20260905030933 | 78 | 134 | 1.0 | 2.0 | 0.00 | 0.03 | 0.03 | 91 | 1015.5 |
| 20260905030428 | 78 | 163 | 2.0 | 3.0 | 0.00 | 0.03 | 0.03 | 91 | 1015.8 |
| 20260905025927 | 78 | 224 | 0.0 | 2.0 | 0.00 | 0.03 | 0.03 | 92 | 1015.6 |
| 20260905025423 | 78 | 134 | 1.0 | 2.0 | 0.00 | 0.03 | 0.03 | 91 | 1015.9 |
| 20260905024920 | 78 | 104 | 2.0 | 3.0 | 0.00 | 0.03 | 0.03 | 91 | 1015.8 |
| 20260905024419 | 78 | 146 | 2.0 | 3.0 | 0.00 | 0.03 | 0.03 | 91 | 1015.8 |
| 20260905023915 | 78 | 163 | 3.0 | 3.0 | 0.00 | 0.03 | 0.03 | 91 | 1016.0 |
| 20260905023410 | 78 | 114 | 1.0 | 2.0 | 0.00 | 0.03 | 0.03 | 92 | 1015.9 |
| 20260905022909 | 78 | 128 | 2.0 | 3.0 | 0.00 | 0.03 | 0.03 | 92 | 1015.6 |
| 20260905022404 | 78 | 157 | 2.0 | 3.0 | 0.00 | 0.03 | 0.03 | 92 | 1015.7 |
| 20260905021859 | 78 | 61 | 0.0 | 2.0 | 0.00 | 0.03 | 0.03 | 92 | 1015.8 |
| 20260905021354 | 78 | 107 | 0.0 | 2.0 | 0.00 | 0.03 | 0.03 | 92 | 1015.7 |
| 20260905020850 | 78 | 135 | 1.0 | 4.0 | 0.00 | 0.03 | 0.03 | 92 | 1015.7 |
| 20260905020349 | 78 | 121 | 1.0 | 1.0 | 0.00 | 0.03 | 0.03 | 92 | 1015.9 |
| 20260905015850 | 78 | 115 | 0.0 | 2.0 | 0.00 | 0.03 | 0.03 | 91 | 1015.6 |
| 20260905015348 | 78 | 136 | 1.0 | 2.0 | 0.00 | 0.03 | 0.03 | 91 | 1015.6 |
| 20260905014848 | 78 | 169 | 0.0 | 3.0 | 0.00 | 0.03 | 0.03 | 91 | 1015.7 |
| 20260905014343 | 79 | 169 | 3.0 | 4.0 | 0.00 | 0.03 | 0.03 | 91 | 1015.7 |
| 20260905013844 | 79 | 97 | 0.0 | 2.0 | 0.00 | 0.03 | 0.03 | 91 | 1015.9 |
| 20260905013340 | 79 | 240 | 0.0 | 2.0 | 0.00 | 0.03 | 0.03 | 91 | 1015.7 |
| 20260905012835 | 79 | 52 | 0.0 | 2.0 | 0.00 | 0.03 | 0.03 | 90 | 1015.8 |
| 20260905012330 | 79 | 251 | 0.0 | 2.0 | 0.00 | 0.03 | 0.03 | 90 | 1015.4 |
| 20260905011827 | 79 | 347 | 3.0 | 3.0 | 0.00 | 0.03 | 0.03 | 90 | 1015.4 |
| 20260905011322 | 79 | 80 | 1.0 | 2.0 | 0.00 | 0.03 | 0.03 | 90 | 1015.4 |
| 20260905010823 | 79 | 64 | 0.0 | 0.0 | 0.00 | 0.03 | 0.03 | 91 | 1015.4 |
| 20260905010318 | 79 | 0 | 0.0 | 1.0 | 0.00 | 0.03 | 0.03 | 90 | 1015.4 |
| 20260905005814 | 79 | 115 | 0.0 | 0.0 | 0.00 | 0.03 | 0.03 | 91 | 1015.2 |
| 20260905005309 | 79 | 331 | 0.0 | 0.0 | 0.00 | 0.03 | 0.03 | 90 | 1015.0 |
| 20260905004804 | 79 | 325 | 0.0 | 2.0 | 0.00 | 0.03 | 0.03 | 90 | 1015.0 |
| 20260905004259 | 79 | 325 | 0.0 | 1.0 | 0.00 | 0.03 | 0.03 | 91 | 1014.9 |
| 20260905003754 | 78 | 238 | 0.0 | 1.0 | 0.00 | 0.03 | 0.03 | 91 | 1014.5 |
| 20260905003250 | 78 | 115 | 0.0 | 2.0 | 0.00 | 0.03 | 0.03 | 91 | 1014.7 |
| 20260905002746 | 78 | 148 | 3.0 | 3.0 | 0.00 | 0.03 | 0.03 | 90 | 1014.9 |
| 20260905002245 | 78 | 103 | 0.0 | 2.0 | 0.00 | 0.03 | 0.03 | 89 | 1014.9 |
| 20260905001740 | 78 | 220 | 0.0 | 1.0 | 0.00 | 0.03 | 0.03 | 89 | 1015.1 |
| 20260905001239 | 78 | 62 | 0.0 | 1.0 | 0.00 | 0.03 | 0.03 | 89 | 1015.2 |
| 20260905000735 | 78 | 124 | 0.0 | 2.0 | 0.00 | 0.03 | 0.03 | 90 | 1015.2 |
| 20260905000233 | 78 | 112 | 0.0 | 1.0 | 0.02 | 0.03 | 0.03 | 88 | 1015.1 |
| 20260904235726 | 78 | 210 | 0.0 | 0.0 | 0.02 | 0.03 | 0.03 | 88 | 1015.1 |
| 20260904235220 | 78 | 9 | 2.0 | 2.0 | 0.00 | 0.03 | 0.03 | 88 | 1015.3 |
| 20260904234714 | 79 | 177 | 1.0 | 2.0 | 0.00 | 0.03 | 0.03 | 88 | 1015.4 |
| 20260904234210 | 79 | 19 | 0.0 | 3.0 | 0.00 | 0.03 | 0.03 | 89 | 1015.5 |
| 20260904233706 | 79 | 98 | 2.0 | 3.0 | 0.00 | 0.03 | 0.03 | 90 | 1015.4 |
| 20260904233202 | 79 | 59 | 0.0 | 1.0 | 0.00 | 0.03 | 0.03 | 90 | 1015.1 |
| 20260904232658 | 79 | 79 | 0.0 | 3.0 | 0.00 | 0.03 | 0.03 | 90 | 1014.9 |
| 20260904232154 | 79 | 134 | 2.0 | 2.0 | 0.00 | 0.03 | 0.03 | 90 | 1015.3 |
| 20260904231650 | 79 | 301 | 1.0 | 2.0 | 0.00 | 0.03 | 0.03 | 89 | 1015.1 |
| 20260904231145 | 80 | 308 | 1.0 | 2.0 | 0.00 | 0.03 | 0.03 | 88 | 1014.9 |
| 20260904230644 | 80 | 127 | 0.0 | 1.0 | 0.00 | 0.03 | 0.03 | 88 | 1015.5 |
| 20260904230140 | 80 | 123 | 2.0 | 3.0 | 0.00 | 0.03 | 0.03 | 89 | 1015.4 |
| 20260904225637 | 80 | 135 | 2.0 | 2.0 | 0.00 | 0.03 | 0.03 | 87 | 1015.2 |
| 20260904225132 | 80 | 37 | 2.0 | 2.0 | 0.00 | 0.03 | 0.03 | 87 | 1015.4 |
| 20260904224627 | 80 | 121 | 0.0 | 2.0 | 0.00 | 0.03 | 0.03 | 88 | 1015.4 |
| 20260904224121 | 80 | 74 | 2.0 | 2.0 | 0.02 | 0.03 | 0.03 | 89 | 1015.5 |
| 20260904223621 | 80 | 167 | 0.0 | 2.0 | 0.02 | 0.03 | 0.03 | 89 | 1015.4 |
| 20260904223116 | 80 | 60 | 0.0 | 2.0 | 0.00 | 0.02 | 0.02 | 89 | 1015.5 |
| 20260904222612 | 80 | 168 | 0.0 | 2.0 | 0.02 | 0.02 | 0.02 | 88 | 1015.3 |
| 20260904222108 | 80 | 127 | 0.0 | 2.0 | 0.02 | 0.02 | 0.02 | 88 | 1015.1 |
| 20260904221608 | 80 | 109 | 1.0 | 2.0 | 0.02 | 0.02 | 0.02 | 88 | 1014.8 |
| 20260904221107 | 80 | 311 | 1.0 | 3.0 | 0.00 | 0.02 | 0.02 | 86 | 1014.9 |
| 20260904220603 | 80 | 283 | 0.0 | 2.0 | 0.00 | 0.02 | 0.02 | 86 | 1014.6 |
| 20260904220058 | 80 | 137 | 0.0 | 2.0 | 0.00 | 0.02 | 0.02 | 87 | 1014.2 |
| 20260904215558 | 80 | 323 | 0.0 | 2.0 | 0.00 | 0.02 | 0.02 | 86 | 1013.8 |
| 20260904215054 | 80 | 315 | 0.0 | 2.0 | 0.00 | 0.02 | 0.02 | 86 | 1013.7 |
| 20260904214549 | 80 | 241 | 2.0 | 2.0 | 0.00 | 0.02 | 0.02 | 83 | 1013.9 |
| 20260904214044 | 80 | 65 | 0.0 | 2.0 | 0.02 | 0.02 | 0.02 | 86 | 1014.1 |
| 20260904213542 | 81 | 95 | 2.0 | 2.0 | 0.02 | 0.02 | 0.02 | 85 | 1014.1 |
| 20260904213039 | 81 | 337 | 1.0 | 3.0 | 0.00 | 0.01 | 0.01 | 84 | 1013.9 |
| 20260904212538 | 80 | 252 | 2.0 | 5.0 | 0.02 | 0.01 | 0.01 | 83 | 1013.5 |
| 20260904212034 | 80 | 259 | 2.0 | 4.0 | 0.02 | 0.01 | 0.01 | 82 | 1013.4 |
| 20260904211533 | 81 | 260 | 4.0 | 6.0 | 0.02 | 0.01 | 0.01 | 81 | 1013.7 |
| 20260904211029 | 81 | 255 | 3.0 | 6.0 | 0.02 | 0.01 | 0.01 | 82 | 1013.9 |
| 20260904210528 | 81 | 213 | 6.0 | 6.0 | 0.02 | 0.00 | 0.00 | 82 | 1013.9 |
| 20260904210025 | 82 | 293 | 3.0 | 6.0 | 0.02 | 0.00 | 0.00 | 81 | 1013.8 |
| 20260904205520 | 83 | 311 | 5.0 | 7.0 | 0.00 | 0.00 | 0.00 | 76 | 1013.8 |
| 20260904205016 | 83 | 262 | 6.0 | 11.0 | 0.00 | 0.00 | 0.00 | 72 | 1014.0 |
| 20260904204512 | 83 | 266 | 10.0 | 10.0 | 0.00 | 0.00 | 0.00 | 68 | 1014.1 |
| 20260904204008 | 86 | 265 | 4.0 | 16.0 | 0.00 | 0.00 | 0.00 | 62 | 1014.1 |
| 20260904203504 | 89 | 272 | 6.0 | 7.0 | 0.00 | 0.00 | 0.00 | 61 | 1014.0 |
| 20260904203000 | 91 | 221 | 10.0 | 11.0 | 0.00 | 0.00 | 0.00 | 59 | 1013.6 |
| 20260904202455 | 92 | 125 | 6.0 | 7.0 | 0.00 | 0.00 | 0.00 | 58 | 1013.4 |
| 20260904201951 | 93 | 194 | 3.0 | 6.0 | 0.00 | 0.00 | 0.00 | 61 | 1013.2 |
| 20260904201452 | 93 | 177 | 3.0 | 4.0 | 0.00 | 0.00 | 0.00 | 59 | 1013.4 |
| 20260904200948 | 93 | 206 | 5.0 | 7.0 | 0.00 | 0.00 | 0.00 | 57 | 1013.6 |
| 20260904200446 | 93 | 159 | 2.0 | 5.0 | 0.00 | 0.00 | 0.00 | 58 | 1013.6 |
| 20260904195941 | 93 | 203 | 3.0 | 5.0 | 0.00 | 0.00 | 0.00 | 58 | 1013.5 |
| 20260904195439 | 93 | 109 | 3.0 | 6.0 | 0.00 | 0.00 | 0.00 | 57 | 1013.7 |
| 20260904194939 | 93 | 205 | 3.0 | 5.0 | 0.00 | 0.00 | 0.00 | 57 | 1013.7 |
| 20260904194439 | 93 | 154 | 3.0 | 5.0 | 0.00 | 0.00 | 0.00 | 57 | 1013.9 |
| 20260904193934 | 93 | 156 | 3.0 | 4.0 | 0.00 | 0.00 | 0.00 | 56 | 1013.7 |
| 20260904193429 | 93 | 172 | 3.0 | 4.0 | 0.00 | 0.00 | 0.00 | 60 | 1014.0 |
| 20260904192925 | 93 | 180 | 3.0 | 9.0 | 0.00 | 0.00 | 0.00 | 56 | 1013.8 |
| 20260904192420 | 93 | 159 | 4.0 | 4.0 | 0.00 | 0.00 | 0.00 | 58 | 1014.1 |
| 20260904191916 | 93 | 155 | 3.0 | 5.0 | 0.00 | 0.00 | 0.00 | 57 | 1014.2 |
| 20260904191412 | 93 | 214 | 6.0 | 7.0 | 0.00 | 0.00 | 0.00 | 57 | 1014.3 |
| 20260904190909 | 93 | 159 | 4.0 | 6.0 | 0.00 | 0.00 | 0.00 | 57 | 1014.3 |
| 20260904190404 | 93 | 162 | 3.0 | 7.0 | 0.00 | 0.00 | 0.00 | 57 | 1014.3 |
| 20260904185900 | 93 | 167 | 4.0 | 6.0 | 0.00 | 0.00 | 0.00 | 58 | 1014.5 |
| 20260904185356 | 93 | 127 | 4.0 | 7.0 | 0.00 | 0.00 | 0.00 | 56 | 1014.4 |
| 20260904184855 | 93 | 169 | 3.0 | 6.0 | 0.00 | 0.00 | 0.00 | 57 | 1014.6 |
| 20260904184350 | 94 | 130 | 7.0 | 9.0 | 0.00 | 0.00 | 0.00 | 55 | 1014.7 |
| 20260904183845 | 93 | 187 | 5.0 | 5.0 | 0.00 | 0.00 | 0.00 | 58 | 1014.7 |
| 20260904183341 | 93 | 162 | 4.0 | 6.0 | 0.00 | 0.00 | 0.00 | 58 | 1014.9 |
| 20260904182836 | 93 | 114 | 2.0 | 6.0 | 0.00 | 0.00 | 0.00 | 56 | 1015.1 |
| 20260904182337 | 93 | 124 | 4.0 | 6.0 | 0.00 | 0.00 | 0.00 | 58 | 1015.2 |
| 20260904181832 | 93 | 198 | 2.0 | 10.0 | 0.00 | 0.00 | 0.00 | 58 | 1015.0 |
| 20260904181332 | 92 | 135 | 2.0 | 9.0 | 0.00 | 0.00 | 0.00 | 60 | 1015.3 |
| 20260904180827 | 92 | 169 | 2.0 | 4.0 | 0.00 | 0.00 | 0.00 | 58 | 1015.1 |
| 20260904180323 | 93 | 136 | 4.0 | 10.0 | 0.00 | 0.00 | 0.00 | 58 | 1015.3 |
| 20260904175822 | 93 | 177 | 2.0 | 6.0 | 0.00 | 0.00 | 0.00 | 60 | 1015.4 |
| 20260904175321 | 93 | 101 | 5.0 | 7.0 | 0.00 | 0.00 | 0.00 | 58 | 1015.5 |
| 20260904174820 | 92 | 200 | 5.0 | 5.0 | 0.00 | 0.00 | 0.00 | 59 | 1015.3 |
| 20260904174317 | 92 | 165 | 1.0 | 4.0 | 0.00 | 0.00 | 0.00 | 62 | 1015.7 |
| 20260904173813 | 92 | 145 | 4.0 | 5.0 | 0.00 | 0.00 | 0.00 | 59 | 1015.5 |
| 20260904173308 | 91 | 192 | 1.0 | 3.0 | 0.00 | 0.00 | 0.00 | 61 | 1015.6 |
| 20260904172804 | 92 | 154 | 3.0 | 6.0 | 0.00 | 0.00 | 0.00 | 62 | 1015.5 |
| 20260904172305 | 91 | 180 | 3.0 | 5.0 | 0.00 | 0.00 | 0.00 | 61 | 1015.7 |
| 20260904171758 | 92 | 211 | 4.0 | 5.0 | 0.00 | 0.00 | 0.00 | 61 | 1015.9 |
| 20260904171253 | 91 | 202 | 3.0 | 6.0 | 0.00 | 0.00 | 0.00 | 59 | 1015.7 |
| 20260904170749 | 91 | 215 | 4.0 | 7.0 | 0.00 | 0.00 | 0.00 | 61 | 1015.9 |
| 20260904170245 | 91 | 171 | 2.0 | 4.0 | 0.00 | 0.00 | 0.00 | 60 | 1016.0 |
| 20260904165744 | 92 | 176 | 2.0 | 8.0 | 0.00 | 0.00 | 0.00 | 58 | 1016.0 |
| 20260904165238 | 91 | 196 | 2.0 | 4.0 | 0.00 | 0.00 | 0.00 | 60 | 1015.9 |
| 20260904164738 | 90 | 253 | 4.0 | 6.0 | 0.00 | 0.00 | 0.00 | 59 | 1016.3 |
| 20260904164233 | 91 | 236 | 4.0 | 5.0 | 0.00 | 0.00 | 0.00 | 59 | 1016.2 |
| 20260904163730 | 91 | 250 | 4.0 | 9.0 | 0.00 | 0.00 | 0.00 | 59 | 1016.4 |
| 20260904163225 | 90 | 249 | 4.0 | 6.0 | 0.00 | 0.00 | 0.00 | 60 | 1016.3 |
| 20260904162724 | 91 | 229 | 5.0 | 5.0 | 0.00 | 0.00 | 0.00 | 61 | 1016.2 |
| 20260904162219 | 91 | 160 | 3.0 | 4.0 | 0.00 | 0.00 | 0.00 | 61 | 1016.2 |
| 20260904161715 | 90 | 123 | 4.0 | 5.0 | 0.00 | 0.00 | 0.00 | 63 | 1016.2 |
| 20260904161209 | 90 | 214 | 4.0 | 6.0 | 0.00 | 0.00 | 0.00 | 64 | 1016.2 |
| 20260904160705 | 90 | 133 | 2.0 | 5.0 | 0.00 | 0.00 | 0.00 | 64 | 1016.4 |
| 20260904160200 | 90 | 248 | 4.0 | 4.0 | 0.00 | 0.00 | 0.00 | 64 | 1016.5 |
| 20260904155655 | 90 | 231 | 3.0 | 9.0 | 0.00 | 0.00 | 0.00 | 63 | 1016.4 |
| 20260904155154 | 90 | 200 | 4.0 | 6.0 | 0.00 | 0.00 | 0.00 | 63 | 1016.3 |
| 20260904154653 | 90 | 247 | 5.0 | 6.0 | 0.00 | 0.00 | 0.00 | 66 | 1016.5 |
| 20260904154153 | 90 | 210 | 6.0 | 9.0 | 0.00 | 0.00 | 0.00 | 61 | 1016.7 |
| 20260904153648 | 91 | 208 | 6.0 | 6.0 | 0.00 | 0.00 | 0.00 | 62 | 1016.7 |
| 20260904153143 | 91 | 171 | 3.0 | 6.0 | 0.00 | 0.00 | 0.00 | 63 | 1016.8 |
| 20260904152640 | 90 | 154 | 2.0 | 5.0 | 0.00 | 0.00 | 0.00 | 64 | 1016.4 |
| 20260904152136 | 90 | 246 | 3.0 | 9.0 | 0.00 | 0.00 | 0.00 | 65 | 1016.7 |
| 20260904151630 | 91 | 197 | 2.0 | 4.0 | 0.00 | 0.00 | 0.00 | 65 | 1016.8 |
| 20260904151129 | 89 | 213 | 4.0 | 5.0 | 0.00 | 0.00 | 0.00 | 65 | 1016.5 |
| 20260904150624 | 89 | 251 | 3.0 | 5.0 | 0.00 | 0.00 | 0.00 | 65 | 1016.3 |
| 20260904150120 | 90 | 186 | 4.0 | 4.0 | 0.00 | 0.00 | 0.00 | 65 | 1016.5 |
| 20260904145618 | 89 | 224 | 2.0 | 4.0 | 0.00 | 0.00 | 0.00 | 67 | 1016.5 |
| 20260904145114 | 89 | 205 | 4.0 | 11.0 | 0.00 | 0.00 | 0.00 | 66 | 1016.2 |
| 20260904144609 | 88 | 200 | 2.0 | 9.0 | 0.00 | 0.00 | 0.00 | 67 | 1016.4 |
| 20260904144105 | 89 | 208 | 8.0 | 11.0 | 0.00 | 0.00 | 0.00 | 65 | 1016.5 |
| 20260904143601 | 89 | 180 | 2.0 | 4.0 | 0.00 | 0.00 | 0.00 | 68 | 1016.3 |
| 20260904143057 | 89 | 202 | 3.0 | 4.0 | 0.00 | 0.00 | 0.00 | 69 | 1016.6 |
| 20260904142553 | 88 | 183 | 2.0 | 6.0 | 0.00 | 0.00 | 0.00 | 72 | 1016.4 |
| 20260904142054 | 88 | 171 | 3.0 | 4.0 | 0.00 | 0.00 | 0.00 | 70 | 1016.5 |
| 20260904141549 | 88 | 175 | 2.0 | 6.0 | 0.00 | 0.00 | 0.00 | 70 | 1016.3 |
| 20260904141045 | 88 | 185 | 1.0 | 6.0 | 0.00 | 0.00 | 0.00 | 71 | 1016.4 |
| 20260904140540 | 88 | 193 | 2.0 | 2.0 | 0.00 | 0.00 | 0.00 | 73 | 1016.4 |
| 20260904140040 | 87 | 167 | 2.0 | 2.0 | 0.00 | 0.00 | 0.00 | 71 | 1015.9 |
| 20260904135539 | 88 | 172 | 2.0 | 3.0 | 0.00 | 0.00 | 0.00 | 73 | 1016.1 |
| 20260904135035 | 87 | 196 | 2.0 | 3.0 | 0.00 | 0.00 | 0.00 | 74 | 1016.0 |
| 20260904134530 | 87 | 165 | 1.0 | 3.0 | 0.00 | 0.00 | 0.00 | 75 | 1016.2 |
| 20260904134025 | 87 | 175 | 1.0 | 3.0 | 0.00 | 0.00 | 0.00 | 75 | 1016.0 |
| 20260904133519 | 86 | 203 | 1.0 | 4.0 | 0.00 | 0.00 | 0.00 | 75 | 1016.2 |
| 20260904133016 | 86 | 180 | 2.0 | 2.0 | 0.00 | 0.00 | 0.00 | 77 | 1016.1 |
| 20260904132516 | 86 | 132 | 2.0 | 3.0 | 0.00 | 0.00 | 0.00 | 75 | 1016.0 |
| 20260904132016 | 86 | 149 | 2.0 | 3.0 | 0.00 | 0.00 | 0.00 | 78 | 1016.0 |
| 20260904131516 | 85 | 139 | 2.0 | 3.0 | 0.00 | 0.00 | 0.00 | 78 | 1015.7 |
| 20260904131011 | 85 | 185 | 1.0 | 3.0 | 0.00 | 0.00 | 0.00 | 80 | 1015.7 |
| 20260904130510 | 84 | 177 | 1.0 | 3.0 | 0.00 | 0.00 | 0.00 | 82 | 1015.9 |
| 20260904130005 | 83 | 182 | 1.0 | 3.0 | 0.00 | 0.00 | 0.00 | 84 | 1015.8 |
| 20260904125502 | 83 | 147 | 0.0 | 4.0 | 0.00 | 0.00 | 0.00 | 86 | 1015.9 |
| 20260904124956 | 82 | 202 | 1.0 | 2.0 | 0.00 | 0.00 | 0.00 | 87 | 1015.9 |
| 20260904124452 | 82 | 137 | 0.0 | 2.0 | 0.00 | 0.00 | 0.00 | 89 | 1016.1 |
| 20260904123948 | 81 | 213 | 1.0 | 2.0 | 0.00 | 0.00 | 0.00 | 91 | 1016.2 |
| 20260904123442 | 80 | 120 | 0.0 | 1.0 | 0.00 | 0.00 | 0.00 | 92 | 1015.5 |
| 20260904122937 | 80 | 293 | 0.0 | 1.0 | 0.00 | 0.00 | 0.00 | 92 | 1015.7 |
| 20260904122437 | 80 | 106 | 0.0 | 1.0 | 0.00 | 0.00 | 0.00 | 94 | 1015.8 |
| 20260904121931 | 79 | 107 | 1.0 | 2.0 | 0.00 | 0.00 | 0.00 | 95 | 1016.0 |
| 20260904121428 | 78 | 150 | 1.0 | 2.0 | 0.00 | 0.00 | 0.00 | 96 | 1015.8 |
| 20260904120925 | 78 | 102 | 0.0 | 2.0 | 0.00 | 0.00 | 0.00 | 97 | 1015.5 |
| 20260904120420 | 77 | 82 | 1.0 | 1.0 | 0.00 | 0.00 | 0.00 | 98 | 1015.6 |
| 20260904115915 | 77 | 34 | 0.0 | 1.0 | 0.00 | 0.00 | 0.00 | 98 | 1015.6 |
| 20260904115410 | 77 | 117 | 0.0 | 0.0 | 0.00 | 0.00 | 0.00 | 98 | 1015.5 |
| 20260904114904 | 76 | 54 | 0.0 | 0.0 | 0.00 | 0.00 | 0.00 | 98 | 1015.5 |
| 20260904114359 | 76 | 40 | 0.0 | 1.0 | 0.00 | 0.00 | 0.00 | 97 | 1015.5 |
| 20260904113854 | 76 | 234 | 0.0 | 0.0 | 0.00 | 0.00 | 0.00 | 97 | 1015.5 |
| 20260904113354 | 76 | 299 | 0.0 | 1.0 | 0.00 | 0.00 | 0.00 | 98 | 1015.6 |
| 20260904112848 | 76 | 22 | 0.0 | 2.0 | 0.00 | 0.00 | 0.00 | 98 | 1015.4 |
| 20260904112344 | 76 | 324 | 0.0 | 1.0 | 0.00 | 0.00 | 0.00 | 98 | 1015.4 |
| 20260904111840 | 76 | 343 | 0.0 | 1.0 | 0.00 | 0.00 | 0.00 | 98 | 1015.2 |
| 20260904111335 | 76 | 0 | 0.0 | 1.0 | 0.00 | 0.00 | 0.00 | 98 | 1015.1 |
| 20260904110831 | 76 | 239 | 0.0 | 2.0 | 0.00 | 0.00 | 0.00 | 97 | 1015.1 |
| 20260904110330 | 76 | 299 | 0.0 | 1.0 | 0.00 | 0.00 | 0.00 | 98 | 1015.1 |
| 20260904105830 | 76 | 326 | 0.0 | 1.0 | 0.00 | 0.00 | 0.00 | 98 | 1015.0 |
| 20260904105325 | 76 | 299 | 0.0 | 1.0 | 0.00 | 0.00 | 0.00 | 97 | 1015.0 |
| 20260904104820 | 75 | 299 | 0.0 | 0.0 | 0.00 | 0.00 | 0.00 | 97 | 1015.0 |
| 20260904104315 | 76 | 251 | 0.0 | 0.0 | 0.00 | 0.00 | 0.00 | 97 | 1014.8 |
| 20260904103812 | 76 | 44 | 0.0 | 1.0 | 0.00 | 0.00 | 0.00 | 97 | 1014.7 |
| 20260904103312 | 76 | 315 | 0.0 | 0.0 | 0.00 | 0.00 | 0.00 | 96 | 1014.8 |
| 20260904102808 | 76 | 280 | 0.0 | 1.0 | 0.00 | 0.00 | 0.00 | 96 | 1014.7 |
| 20260904102306 | 76 | 315 | 0.0 | 1.0 | 0.00 | 0.00 | 0.00 | 96 | 1014.8 |
| 20260904101759 | 76 | 44 | 0.0 | 0.0 | 0.00 | 0.00 | 0.00 | 96 | 1014.5 |
| 20260904101255 | 76 | 44 | 0.0 | 1.0 | 0.00 | 0.00 | 0.00 | 96 | 1014.6 |
| 20260904100750 | 76 | 326 | 1.0 | 1.0 | 0.00 | 0.00 | 0.00 | 96 | 1014.4 |
| 20260904100246 | 76 | 345 | 0.0 | 1.0 | 0.00 | 0.00 | 0.00 | 96 | 1014.6 |
| 20260904095746 | 76 | 323 | 0.0 | 1.0 | 0.00 | 0.00 | 0.00 | 96 | 1014.4 |
| 20260904095241 | 76 | 36 | 0.0 | 1.0 | 0.00 | 0.00 | 0.00 | 96 | 1014.4 |
| 20260904094736 | 76 | 42 | 1.0 | 2.0 | 0.00 | 0.00 | 0.00 | 96 | 1014.6 |
| 20260904094231 | 76 | 25 | 1.0 | 2.0 | 0.00 | 0.00 | 0.00 | 96 | 1014.9 |
| 20260904093727 | 76 | 40 | 0.0 | 1.0 | 0.00 | 0.00 | 0.00 | 96 | 1014.4 |
| 20260904093227 | 76 | 307 | 0.0 | 0.0 | 0.00 | 0.00 | 0.00 | 95 | 1014.5 |
| 20260904092723 | 76 | 47 | 0.0 | 0.0 | 0.00 | 0.00 | 0.00 | 95 | 1014.6 |
| 20260904092219 | 76 | 312 | 0.0 | 0.0 | 0.00 | 0.00 | 0.00 | 95 | 1014.5 |
| 20260904091714 | 76 | 30 | 0.0 | 1.0 | 0.00 | 0.00 | 0.00 | 95 | 1014.2 |
| 20260904091209 | 76 | 327 | 0.0 | 1.0 | 0.00 | 0.00 | 0.00 | 95 | 1014.3 |
| 20260904090705 | 76 | 301 | 0.0 | 0.0 | 0.00 | 0.00 | 0.00 | 94 | 1014.4 |
| 20260904090201 | 77 | 315 | 0.0 | 0.0 | 0.00 | 0.00 | 0.00 | 94 | 1014.4 |
| 20260904085656 | 77 | 351 | 1.0 | 2.0 | 0.00 | 0.00 | 0.00 | 94 | 1014.3 |
| 20260904085155 | 77 | 322 | 0.0 | 1.0 | 0.00 | 0.00 | 0.00 | 94 | 1014.5 |
| 20260904084651 | 77 | 355 | 0.0 | 1.0 | 0.00 | 0.00 | 0.00 | 94 | 1014.4 |
| 20260904084147 | 77 | 0 | 0.0 | 1.0 | 0.00 | 0.00 | 0.00 | 93 | 1014.6 |
| 20260904083643 | 77 | 347 | 0.0 | 1.0 | 0.00 | 0.00 | 0.00 | 93 | 1014.4 |
| 20260904083139 | 77 | 7 | 0.0 | 1.0 | 0.00 | 0.00 | 0.00 | 93 | 1014.4 |
| 20260904082633 | 77 | 351 | 0.0 | 1.0 | 0.00 | 0.00 | 0.00 | 93 | 1014.6 |
| 20260904082129 | 77 | 331 | 1.0 | 1.0 | 0.00 | 0.00 | 0.00 | 93 | 1014.3 |
| 20260904081624 | 78 | 139 | 0.0 | 0.0 | 0.00 | 0.00 | 0.00 | 92 | 1014.3 |
| 20260904081119 | 78 | 316 | 0.0 | 1.0 | 0.00 | 0.00 | 0.00 | 93 | 1014.3 |
| 20260904080615 | 78 | 80 | 0.0 | 2.0 | 0.00 | 0.00 | 0.00 | 93 | 1014.2 |
| 20260904080111 | 78 | 109 | 0.0 | 0.0 | 0.00 | 0.00 | 0.00 | 93 | 1014.2 |
| 20260904075608 | 78 | 117 | 0.0 | 0.0 | 0.00 | 0.00 | 0.00 | 93 | 1014.1 |
| 20260904075107 | 78 | 130 | 0.0 | 2.0 | 0.00 | 0.00 | 0.00 | 93 | 1014.3 |
| 20260904074607 | 77 | 131 | 1.0 | 2.0 | 0.00 | 0.00 | 0.00 | 94 | 1014.4 |
| 20260904074101 | 77 | 36 | 0.0 | 1.0 | 0.00 | 0.00 | 0.00 | 94 | 1013.9 |
| 20260904073556 | 77 | 60 | 0.0 | 0.0 | 0.00 | 0.00 | 0.00 | 94 | 1014.2 |
| 20260904073053 | 77 | 36 | 0.0 | 1.0 | 0.00 | 0.00 | 0.00 | 94 | 1014.3 |
| 20260904072548 | 77 | 335 | 0.0 | 0.0 | 0.00 | 0.00 | 0.00 | 93 | 1014.1 |
| 20260904072043 | 78 | 335 | 0.0 | 0.0 | 0.00 | 0.00 | 0.00 | 93 | 1014.3 |
| 20260904071539 | 78 | 318 | 0.0 | 0.0 | 0.00 | 0.00 | 0.00 | 92 | 1014.2 |
| 20260904071033 | 78 | 31 | 0.0 | 1.0 | 0.00 | 0.00 | 0.00 | 92 | 1013.8 |
| 20260904070532 | 78 | 52 | 0.0 | 1.0 | 0.00 | 0.00 | 0.00 | 92 | 1014.0 |
| 20260904070027 | 78 | 71 | 0.0 | 1.0 | 0.00 | 0.00 | 0.00 | 92 | 1014.2 |
| 20260904065523 | 78 | 192 | 0.0 | 2.0 | 0.00 | 0.00 | 0.00 | 92 | 1014.1 |
| 20260904065019 | 78 | 124 | 0.0 | 2.0 | 0.00 | 0.00 | 0.00 | 92 | 1014.2 |
| 20260904064515 | 78 | 128 | 2.0 | 3.0 | 0.00 | 0.00 | 0.00 | 92 | 1014.1 |
| 20260904064014 | 78 | 140 | 2.0 | 2.0 | 0.00 | 0.00 | 0.00 | 92 | 1014.2 |
| 20260904063511 | 78 | 115 | 1.0 | 3.0 | 0.00 | 0.00 | 0.00 | 92 | 1014.3 |
| 20260904063011 | 78 | 163 | 1.0 | 3.0 | 0.00 | 0.00 | 0.00 | 92 | 1014.3 |
| 20260904062508 | 78 | 162 | 2.0 | 3.0 | 0.00 | 0.00 | 0.00 | 93 | 1014.5 |
| 20260904062003 | 78 | 125 | 1.0 | 2.0 | 0.00 | 0.00 | 0.00 | 93 | 1014.5 |
| 20260904061459 | 78 | 126 | 2.0 | 4.0 | 0.00 | 0.00 | 0.00 | 93 | 1014.5 |
| 20260904060955 | 78 | 56 | 2.0 | 3.0 | 0.00 | 0.00 | 0.00 | 94 | 1014.6 |
| 20260904060451 | 78 | 133 | 3.0 | 4.0 | 0.00 | 0.00 | 0.00 | 94 | 1014.7 |
| 20260904055946 | 78 | 138 | 0.0 | 0.0 | 0.00 | 0.00 | 0.00 | 94 | 1014.6 |
| 20260904055442 | 78 | 52 | 0.0 | 0.0 | 0.00 | 0.00 | 0.00 | 94 | 1014.6 |
| 20260904054937 | 78 | 317 | 1.0 | 1.0 | 0.00 | 0.00 | 0.00 | 94 | 1015.0 |
| 20260904054433 | 78 | 37 | 0.0 | 1.0 | 0.00 | 0.00 | 0.00 | 93 | 1014.7 |
| 20260904053929 | 78 | 47 | 0.0 | 1.0 | 0.00 | 0.00 | 0.00 | 93 | 1015.0 |
| 20260904053428 | 78 | 23 | 0.0 | 0.0 | 0.00 | 0.00 | 0.00 | 93 | 1014.8 |
| 20260904052923 | 78 | 65 | 0.0 | 0.0 | 0.00 | 0.00 | 0.00 | 93 | 1014.9 |
| 20260904052420 | 78 | 120 | 0.0 | 1.0 | 0.00 | 0.00 | 0.00 | 93 | 1015.0 |
| 20260904051916 | 78 | 112 | 1.0 | 1.0 | 0.00 | 0.00 | 0.00 | 93 | 1015.0 |
| 20260904051412 | 78 | 113 | 2.0 | 2.0 | 0.00 | 0.00 | 0.00 | 93 | 1014.9 |
| 20260904050906 | 78 | 141 | 0.0 | 1.0 | 0.00 | 0.00 | 0.00 | 93 | 1014.9 |
| 20260904050403 | 78 | 89 | 0.0 | 1.0 | 0.00 | 0.00 | 0.00 | 93 | 1015.0 |
| 20260904045902 | 78 | 40 | 0.0 | 0.0 | 0.00 | 0.00 | 0.00 | 92 | 1015.2 |
| 20260904045358 | 78 | 23 | 0.0 | 1.0 | 0.00 | 0.00 | 0.00 | 92 | 1015.2 |
| 20260904044857 | 78 | 30 | 0.0 | 0.0 | 0.00 | 0.00 | 0.00 | 92 | 1015.3 |
| 20260904044354 | 78 | 68 | 0.0 | 1.0 | 0.00 | 0.00 | 0.00 | 92 | 1015.1 |